When you browse on this site, cookies collect data to enhance your experience and personalize the content and advertising you see.
Visit our Privacy Policy to learn more. By continuing to use the site, you agree to this use of cookies and data.
  • In Hungary
  • List of Countries
  • For 7 days
  • Water Temperature
  • Satellite Maps
  • Weather Map
  • News
  • Weather Widgets
  • user-avatar
    Login

    Hourly Weather Obera

    Today, 21 July, Sunday

    Time Temperature Precipitation Wind Pressure Humidity
    00:00 +20°C° 0 mm 3 mps 730 mmHg 77%
    01:00 +19°C° 0 mm 3 mps 729 mmHg 77%
    02:00 +19°C° 0 mm 3 mps 729 mmHg 77%
    03:00 +19°C° 0 mm 3 mps 729 mmHg 78%
    04:00 +19°C° 0 mm 3 mps 729 mmHg 78%
    05:00 +18°C° 0 mm 3 mps 728 mmHg 78%
    06:00 +19°C° 0 mm 3 mps 729 mmHg 76%
    07:00 +20°C° 0 mm 3 mps 729 mmHg 73%
    08:00 +20°C° 0 mm 3 mps 730 mmHg 71%
    09:00 +21°C° 0 mm 4 mps 730 mmHg 67%
    10:00 +23°C° 0 mm 4 mps 730 mmHg 62%
    11:00 +25°C° 0 mm 4 mps 729 mmHg 58%
    12:00 +26°C° 0 mm 4 mps 729 mmHg 55%
    13:00 +26°C° 0 mm 4 mps 728 mmHg 52%
    14:00 +27°C° 0 mm 4 mps 727 mmHg 49%
    15:00 +26°C° 0 mm 3 mps 727 mmHg 54%
    16:00 +24°C° 0 mm 3 mps 727 mmHg 60%
    17:00 +23°C° 0 mm 2 mps 726 mmHg 65%
    18:00 +21°C° 0 mm 2 mps 727 mmHg 67%
    19:00 +21°C° 0 mm 2 mps 727 mmHg 70%
    20:00 +20°C° 0 mm 3 mps 727 mmHg 72%
    21:00 +20°C° 0 mm 3 mps 728 mmHg 72%
    22:00 +20°C° 0 mm 3 mps 728 mmHg 72%
    23:00 +20°C° 0 mm 3 mps 728 mmHg 72%

    Tomorrow, 22 July, Monday

    Time Temperature Precipitation Wind Pressure Humidity
    00:00 +20°C° 0 mm 3 mps 728 mmHg 71%
    01:00 +20°C° 0 mm 3 mps 728 mmHg 71%
    02:00 +19°C° 0 mm 3 mps 727 mmHg 71%
    03:00 +20°C° 0 mm 3 mps 727 mmHg 68%
    04:00 +20°C° 0 mm 4 mps 728 mmHg 66%
    05:00 +20°C° 0 mm 4 mps 728 mmHg 64%
    06:00 +20°C° 0 mm 4 mps 728 mmHg 63%
    07:00 +21°C° 0 mm 4 mps 729 mmHg 62%
    08:00 +21°C° 0 mm 4 mps 729 mmHg 61%
    09:00 +21°C° 0 mm 3 mps 729 mmHg 60%
    10:00 +22°C° 0 mm 3 mps 729 mmHg 60%
    11:00 +22°C° 0 mm 3 mps 729 mmHg 59%
    12:00 +24°C° 0 mm 3 mps 729 mmHg 58%
    13:00 +24°C° 0 mm 2 mps 728 mmHg 58%
    14:00 +25°C° 0 mm 2 mps 728 mmHg 58%
    15:00 +25°C° 0 mm 2 mps 728 mmHg 60%
    16:00 +24°C° 0 mm 1 mps 728 mmHg 62%
    17:00 +24°C° 0 mm 1 mps 728 mmHg 64%
    18:00 +23°C° 0.1 mm 1 mps 729 mmHg 67%
    19:00 +23°C° 0.1 mm 2 mps 729 mmHg 70%
    20:00 +21°C° 0.1 mm 2 mps 729 mmHg 73%
    21:00 +21°C° 0.2 mm 2 mps 729 mmHg 77%
    22:00 +21°C° 0.2 mm 1 mps 729 mmHg 82%
    23:00 +20°C° 0.2 mm 1 mps 729 mmHg 87%

    Day after tomorrow, 23 July, Tuesday

    Time Temperature Precipitation Wind Pressure Humidity
    00:00 +20°C° 0.2 mm 1 mps 729 mmHg 88%
    01:00 +20°C° 0.2 mm 1 mps 729 mmHg 89%
    02:00 +20°C° 0.2 mm 1 mps 729 mmHg 90%
    03:00 +19°C° 0.1 mm 2 mps 729 mmHg 88%
    04:00 +19°C° 0.1 mm 2 mps 729 mmHg 87%
    05:00 +19°C° 0.1 mm 3 mps 729 mmHg 85%
    06:00 +19°C° 0.7 mm 2 mps 729 mmHg 88%
    07:00 +18°C° 0.7 mm 2 mps 730 mmHg 91%
    08:00 +18°C° 0.7 mm 2 mps 730 mmHg 94%
    09:00 +19°C° 0.3 mm 2 mps 730 mmHg 89%
    10:00 +20°C° 0.3 mm 2 mps 730 mmHg 84%
    11:00 +21°C° 0.3 mm 2 mps 730 mmHg 80%
    12:00 +23°C° 0.1 mm 2 mps 730 mmHg 76%
    13:00 +24°C° 0.1 mm 2 mps 730 mmHg 72%
    14:00 +25°C° 0.1 mm 2 mps 729 mmHg 68%
    15:00 +23°C° 0 mm 2 mps 729 mmHg 74%
    16:00 +21°C° 0 mm 2 mps 730 mmHg 81%
    17:00 +20°C° 0 mm 2 mps 730 mmHg 87%
    18:00 +19°C° 0 mm 2 mps 730 mmHg 90%
    19:00 +19°C° 0 mm 1 mps 731 mmHg 92%
    20:00 +19°C° 0 mm 1 mps 731 mmHg 95%
    21:00 +18°C° 0.1 mm 1 mps 731 mmHg 95%
    22:00 +18°C° 0.1 mm 1 mps 731 mmHg 96%
    23:00 +16°C° 0.1 mm 0 mps 731 mmHg 97%

    24 July, Wednesday

    Time Temperature Precipitation Wind Pressure Humidity
    00:00 +16°C° 0.2 mm 0 mps 731 mmHg 97%
    01:00 +16°C° 0.2 mm 0 mps 731 mmHg 97%
    02:00 +15°C° 0.2 mm 0 mps 731 mmHg 97%
    03:00 +15°C° 1.5 mm 0 mps 731 mmHg 98%
    04:00 +15°C° 1.5 mm 0 mps 732 mmHg 98%
    05:00 +15°C° 1.5 mm 0 mps 732 mmHg 99%
    06:00 +15°C° 2.2 mm 0 mps 732 mmHg 99%
    07:00 +15°C° 2.2 mm 0 mps 733 mmHg 99%
    08:00 +15°C° 2.2 mm 0 mps 733 mmHg 99%
    09:00 +16°C° 2.3 mm 1 mps 734 mmHg 99%
    10:00 +16°C° 2.3 mm 1 mps 734 mmHg 99%
    11:00 +16°C° 2.3 mm 1 mps 734 mmHg 98%
    12:00 +16°C° 1.6 mm 1 mps 734 mmHg 98%
    13:00 +15°C° 1.6 mm 1 mps 734 mmHg 98%
    14:00 +15°C° 1.6 mm 1 mps 734 mmHg 98%
    15:00 +15°C° 0.7 mm 1 mps 734 mmHg 98%
    16:00 +15°C° 0.7 mm 1 mps 734 mmHg 98%
    17:00 +14°C° 0.7 mm 1 mps 734 mmHg 99%
    18:00 +14°C° 1 mm 1 mps 735 mmHg 99%
    19:00 +14°C° 1 mm 1 mps 735 mmHg 99%
    20:00 +14°C° 1 mm 1 mps 735 mmHg 99%
    21:00 +14°C° 0.4 mm 1 mps 735 mmHg 99%
    22:00 +14°C° 0.4 mm 1 mps 735 mmHg 99%
    23:00 +14°C° 0.4 mm 1 mps 735 mmHg 99%

    25 July, Thursday

    Time Temperature Precipitation Wind Pressure Humidity
    00:00 +14°C° 2.2 mm 1 mps 735 mmHg 99%
    01:00 +14°C° 2.2 mm 1 mps 735 mmHg 99%
    02:00 +14°C° 2.2 mm 1 mps 734 mmHg 99%
    03:00 +13°C° 2 mm 0 mps 734 mmHg 99%
    04:00 +13°C° 2 mm 0 mps 734 mmHg 99%
    05:00 +13°C° 2 mm 0 mps 733 mmHg 99%
    06:00 +13°C° 1.9 mm 0 mps 734 mmHg 99%
    07:00 +13°C° 1.9 mm 0 mps 734 mmHg 99%
    08:00 +13°C° 1.9 mm 0 mps 735 mmHg 99%
    09:00 +13°C° 2.4 mm 0 mps 735 mmHg 99%
    10:00 +14°C° 2.4 mm 1 mps 735 mmHg 99%
    11:00 +14°C° 2.4 mm 1 mps 735 mmHg 99%
    12:00 +14°C° 1.9 mm 1 mps 734 mmHg 98%
    13:00 +13°C° 1.9 mm 0 mps 734 mmHg 98%
    14:00 +13°C° 1.9 mm 0 mps 734 mmHg 98%
    15:00 +13°C° 0.2 mm 0 mps 734 mmHg 98%
    16:00 +13°C° 0.2 mm 1 mps 734 mmHg 98%
    17:00 +13°C° 0.2 mm 1 mps 734 mmHg 98%
    18:00 +13°C° 0.1 mm 1 mps 734 mmHg 98%
    19:00 +13°C° 0.1 mm 1 mps 734 mmHg 98%
    20:00 +12°C° 0.1 mm 1 mps 734 mmHg 98%
    21:00 +12°C° 0 mm 1 mps 734 mmHg 98%
    22:00 +12°C° 0 mm 1 mps 734 mmHg 98%
    23:00 +11°C° 0 mm 1 mps 734 mmHg 98%

    26 July, Friday

    Time Temperature Precipitation Wind Pressure Humidity
    00:00 +11°C° 0 mm 1 mps 734 mmHg 98%
    01:00 +11°C° 0 mm 1 mps 734 mmHg 97%
    02:00 +11°C° 0 mm 1 mps 734 mmHg 97%
    03:00 +11°C° 0 mm 1 mps 734 mmHg 97%
    04:00 +10°C° 0 mm 1 mps 734 mmHg 97%
    05:00 +10°C° 0 mm 1 mps 734 mmHg 97%
    06:00 +10°C° 0 mm 1 mps 734 mmHg 96%
    07:00 +10°C° 0 mm 1 mps 735 mmHg 96%
    08:00 +10°C° 0 mm 1 mps 735 mmHg 96%
    09:00 +11°C° 0 mm 1 mps 735 mmHg 95%
    10:00 +10°C° 0 mm 2 mps 736 mmHg 93%
    11:00 +10°C° 0 mm 2 mps 736 mmHg 92%
    12:00 +10°C° 0.1 mm 2 mps 735 mmHg 92%
    13:00 +10°C° 0.1 mm 2 mps 735 mmHg 92%
    14:00 +11°C° 0.1 mm 1 mps 735 mmHg 93%
    15:00 +11°C° 0 mm 1 mps 735 mmHg 93%
    16:00 +11°C° 0 mm 1 mps 735 mmHg 94%
    17:00 +11°C° 0 mm 1 mps 735 mmHg 95%
    18:00 +11°C° 0 mm 1 mps 736 mmHg 96%
    19:00 +10°C° 0 mm 0 mps 736 mmHg 97%
    20:00 +10°C° 0 mm 0 mps 736 mmHg 97%
    21:00 +9°C° 0 mm 0 mps 736 mmHg 97%
    22:00 +9°C° 0 mm 0 mps 736 mmHg 97%
    23:00 +9°C° 0 mm 0 mps 736 mmHg 97%
    Show more